Main page
METAR-TAF:

METAR-TAF

Airports :

Troll C, Norway

Oil platform

latitude: 60-53-09N, longitude: 3-36-35E, elevation: 20 m

Current weather observation

The report was made 27 minutes ago, at 08:20 UTC
Wind 17 kt from the East/Southeast
Temperature 11°C
Humidity 82%
Pressure 1012 hPa
Visibility 10 km or more

METAR: ENQC 230820Z AUTO 12017KT 9999NDV FEW099/// 11/08 Q1012 W///S3

Time: 10:47 (08:47 UTC)


TAF: missing

Weather observations and forecasts of more than 4000 airports (METAR and TAF reports).

The available stations are represented by yellow and red dots on the map.

Hover mouse over dot to see the name of the station.

Then click to see weather observations and forecasts.

To change the map : click on the green buttons with a black cross to zoom in, on the green button with a dash to zoom out, or on the green arrows for adjacent maps.


METAR-TAF: